Location: Smyrna_Hopewell
(35.6500°N, 81.0330°W)
Time: 02:55:34
(UTC-05:00)

Cosmos 2221 - Visible Passes

Search period start: 18 January 2017 00:00
Search period end: 28 January 2017 00:00
Orbit: 593 x 618 km, 82.5° (Epoch: 17 January)

Date Brightness Start Highest point End Pass type
(mag) Time Alt. Az. Time Alt. Az. Time Alt. Az.
18 Jan 5.6 05:08:10 10° ESE 05:10:35 15° E 05:13:00 10° NE visible
18 Jan 3.1 06:43:47 10° SSW 06:47:47 36° W 06:51:47 10° NNW visible
18 Jan 5.6 18:32:24 10° NW 18:34:42 14° W 18:36:58 10° WSW visible
19 Jan 4.7 05:19:57 10° SE 05:23:31 25° E 05:27:04 10° NE visible
19 Jan 3.7 06:57:42 10° SW 07:01:01 21° WNW 07:04:20 10° NNW visible
20 Jan 3.6 05:32:23 10° SSE 05:36:31 45° E 05:40:38 10° NNE visible
21 Jan 2.5 05:45:15 10° S 05:49:34 82° E 05:53:54 10° N visible
22 Jan 2.5 05:58:27 10° SSW 06:02:41 54° W 06:06:55 10° N visible
23 Jan 5.2 04:35:43 10° SE 04:38:34 17° E 04:41:25 10° NE visible
23 Jan 3.2 06:12:03 10° SW 06:15:52 30° WNW 06:19:42 10° NNW visible
24 Jan 4.5 04:47:46 10° SSE 04:52:49 25° ENE 04:55:17 10° NNE visible
24 Jan 4.0 06:30:01 17° WNW 06:30:01 17° WNW 06:32:05 10° NNW visible
25 Jan 5.2 05:08:36 11° NNE 05:08:36 11° NNE 05:08:44 10° NNE visible
